Grand Junction, CO

4:56 PM MST on November 18, 2019 (GMT -0700)
Walker

Weather History for KGJT - April, 2019

Change the Weather History Date:

Saturday, April 6, 2019

  Actual Average Record
Temperature  
Mean Temperature 56 °F 49 °F  
Max Temperature 67 °F 62 °F 80 °F (1959)
Min Temperature 44 °F 35 °F 19 °F (1909)
Degree Days  
Heating Degree Days 9 16  
Month to date heating degree days 67 100  
Since 1 July heating degree days 5175 5132  
Cooling Degree Days 0 0  
Month to date cooling degree days 0 0  
Year to date cooling degree days 0 0  
Growing Degree Days 5 (Base 50)    
Moisture  
Dew Point 32 °F    
Average Humidity 40    
Maximum Humidity 54    
Minimum Humidity 26    
Precipitation  
Precipitation T in 0.03 in 0.83 in (1993)
Month to date precipitation 0.01 0.19  
Year to date precipitation 3.74 2.23  
Snow  
Snow 0.00 in 0.00 in 1.80 in (1921)
Month to date snowfall 0.0 0.3  
Since 1 July snowfall 17.4 18.4  
Snow Depth 0.00 in    
Sea Level Pressure  
Sea Level Pressure 29.85 in    
Wind  
Wind Speed 9 mph (ENE)    
Max Wind Speed 21 mph    
Max Gust Speed 25 mph    
Visibility 10 miles    
Events      
T = Trace of Precipitation, MM = Missing Value Source: NWS Daily Summary

Daily Weather History Graph

Daily Weather History Graph

Search for Another Location

Airport or City:

Astronomy

Apr. 06, 2019 Rise Set
Actual Time 6:51 AM MDT 7:42 PM MDT
Civil Twilight 6:23 AM MDT 8:09 PM MDT
Nautical Twilight 5:51 AM MDT 8:42 PM MDT
Astronomical Twilight 5:18 AM MDT 9:15 PM MDT
Moon 7:53 AM MDT (4/6) 9:11 PM MDT (4/6)
Length of Visible Light 13h 45m
Length of Day
12h 51m
New Moon, 2% of the Moon is Illuminated
Apr 6
New Moon
Apr 12
First Quarter
Apr 19
Full
Apr 26
Last Quarter
May 4
New

Hourly Weather History & Observations

Time (MDT) Temp. Windchill Dew Point Humidity Pressure Visibility Wind Dir Wind Speed Gust Speed Precip Events Conditions
12:53 AM 50.0 °F - 30.0 °F 46% 29.77 in 10.0 mi East 5.8 mph - N/A   Mostly Cloudy
1:53 AM 50.0 °F - 28.0 °F 43% 29.76 in 10.0 mi ESE 11.5 mph - N/A   Clear
2:53 AM 50.0 °F - 28.0 °F 43% 29.75 in 10.0 mi East 10.4 mph - N/A   Partly Cloudy
3:53 AM 50.0 °F - 28.0 °F 43% 29.75 in 10.0 mi East 12.7 mph - N/A   Mostly Cloudy
4:53 AM 46.9 °F - 28.0 °F 48% 29.77 in 10.0 mi ESE 11.5 mph - N/A   Overcast
5:53 AM 46.9 °F - 28.0 °F 48% 29.78 in 10.0 mi ESE 12.7 mph - N/A   Overcast
6:53 AM 45.0 °F 39.7 °F 28.9 °F 53% 29.81 in 10.0 mi East 10.4 mph - N/A   Overcast
7:53 AM 46.9 °F - 30.9 °F 54% 29.84 in 10.0 mi SE 5.8 mph - N/A   Overcast
8:53 AM 53.1 °F - 30.9 °F 43% 29.85 in 10.0 mi ESE 10.4 mph - N/A   Mostly Cloudy
9:53 AM 54.0 °F - 32.0 °F 43% 29.86 in 6.0 mi ESE 9.2 mph - N/A   Haze
10:53 AM 57.9 °F - 30.0 °F 35% 29.85 in 10.0 mi ESE 4.6 mph - N/A   Overcast
11:53 AM 57.9 °F - 30.9 °F 36% 29.87 in 10.0 mi NNW 5.8 mph - N/A   Overcast
12:53 PM 61.0 °F - 34.0 °F 36% 29.86 in 10.0 mi North - - 0.00 in   Mostly Cloudy
1:24 PM 61.0 °F - 33.1 °F 35% 29.96 in 10.0 mi NW 3.5 mph - N/A   Scattered Clouds
2:53 PM 64.0 °F - 35.1 °F 34% 29.80 in 10.0 mi North 6.9 mph - N/A   Clear
3:53 PM 64.9 °F - 35.1 °F 33% 29.79 in 10.0 mi WSW 4.6 mph - N/A   Clear
4:53 PM 64.9 °F - 35.1 °F 33% 29.81 in 10.0 mi NW 6.9 mph - N/A   Scattered Clouds
5:53 PM 66.0 °F - 30.0 °F 26% 29.81 in 10.0 mi WNW 13.8 mph - N/A   Clear
6:53 PM 63.0 °F - 32.0 °F 31% 29.85 in 10.0 mi WNW 9.2 mph - N/A   Clear
7:53 PM 62.1 °F - 30.9 °F 31% 29.86 in 10.0 mi West 10.4 mph - N/A   Scattered Clouds
8:53 PM 55.9 °F - 37.0 °F 49% 29.90 in 10.0 mi NNE 10.4 mph - 0.00 in   Mostly Cloudy
9:53 PM 54.0 °F - 36.0 °F 51% 29.97 in 10.0 mi NNE 6.9 mph - N/A   Clear
10:53 PM 51.1 °F - 36.0 °F 56% 30.00 in 10.0 mi ENE 12.7 mph - N/A   Partly Cloudy
11:53 PM 51.1 °F - 36.0 °F 56% 30.03 in 10.0 mi Calm Calm - N/A   Clear